Volver al catálogo

SJ 16-02 DEB

ActivoLEO
NORAD 43429·DEBRIS·🇨🇳 China

Lanzado Jun 29, 2016 desde Jiuquan Satellite Launch Center

Loading…

Próximos Pases (próximas 24 horas)

TLE

ActualizadoSource: Space-Track

Época: Sep 13, 2026, 07:34 UTC

1 43429U 16043D   26256.31555273  .00001556  00000-0  30541-3 0  9991
2 43429  74.9607 251.5325 0191633 119.3281 242.7184 14.52276032534190

Sigue SJ 16-02 DEB en tiempo real con AllMySat

Download on the App Store